Starlink 3082

decayed
NORAD ID: 49162 Int'l Des: 2021-082 Owner: SPXS Country: US Constellation: starlink
LEOCIRCULAR

关于 Starlink 3082

正在加载描述...

高度历史

Altitude vs Time

uPlot chart will show altitude changes over time

两行轨道根数

1 49162U 21082AJ 24312.19783052 .09972559 43796-5 71995-3 0 9996
2 49162 69.9794 65.9690 0008065 295.8401 130.3654 16.40542432174545
Epoch: Nov 7, 2024 • Age: 9638 hours

当前状态

Position data unavailable
发射日期 Sep 14, 2021
运行时间 4.2 years
衰减日期 Nov 7, 2024
类型 internet

技术详情

分类 Payload
质量 297.00 kg
干质量 275.00 kg
总质量 297.00 kg
长度 0.20 m
直径 2.80 m
跨度 9.00 m
形状 Box + pan
制造商 SPXS
平台类型 Starlink
阶段状态 Unknown Transfer Status
所有者/国家 SPXS/US

大型星座

Loading constellations...